{"data":{"norad_id":57411,"epoch":"2026-05-25T03:22:52.569408Z","epoch_age_seconds":73290,"freshness":"FRESH","line1":"1 57411U 23102H   26145.14088622  .00000005  00000+0  97186-5 0  9995","line2":"2 57411  43.0056 176.7006 0001797 274.8076  85.2571 15.27579038157887","mean_motion":15.27579038,"eccentricity":0.0001797,"inclination_deg":43.0056,"raan_deg":176.7006,"arg_perigee_deg":274.8076,"mean_anomaly_deg":85.2571,"bstar":9.7186e-6,"rev_number":15788,"period_min":94.266808078575,"perigee_km":481.81902095614,"apogee_km":484.28493227434,"semimajor_km":6861.1889766152,"source":"CELESTRAK","updated_at":"2026-05-25T13:38:18.315706Z"}}